Find Starlink 31734

NORAD ID: 59534 Int'l Des: 2024-074 Owner: SPXS Country: US Constellation: starlink operational
LEOCIRCULAR

当前视图

正在加载3D地球...

About Starlink 31734

Starlink 31734 (NORAD 59534) is a starlink constellation satellite (v2 mini) launched Apr 18, 2024 by SPXS of US. It operates in LEO, CIRCULAR orbit with a mass of 730.00 kg.

关于 Starlink 31734

正在加载描述...

即将过境

Passes for default location (London). Set your location on the main map for personalized predictions.

高度历史

Loading altitude history...

两行轨道根数

1 59534U 24074A 26168.94916875 -.00000351 00000-0 -32152-5 0 9994
2 59534 43.0079 126.4218 0001844 286.4109 73.6540 15.27573593121479
Epoch: Jun 17, 2026 • Age: 7 hours

当前状态

高度 486.9 km
速度 7.62 km/s
星下点 -18.81°S, 29.93°W
发射日期 Apr 18, 2024
运行时间 2.1 years
类型 internet

技术详情

分类 Payload
质量 730.00 kg
干质量 700.00 kg
总质量 730.00 kg
长度 0.30 m
直径 4.10 m
跨度 29.00 m
形状 Box + pan
制造商 SPXS
平台类型 Starlink V2M
阶段状态 In Orbit
所有者/国家 SPXS/US

Most Searched